, AK

(GMT )
Deadhorse

Weather History for PASC - May, 2013

Change the Weather History Date:

Thursday, May 9, 2013

  Actual Average Record
Temperature  
Mean Temperature 24 °F -  
Max Temperature 30 °F 22 °F 37 °F (2015)
Min Temperature 18 °F 9 °F -16 °F (2000)
Degree Days  
Heating Degree Days 40    
Moisture  
Dew Point 20 °F    
Average Humidity 83    
Maximum Humidity 89    
Minimum Humidity 75    
Precipitation  
Precipitation 0.00 in - - ()
Sea Level Pressure  
Sea Level Pressure 30.29 in    
Wind  
Wind Speed 8 mph (SSW)    
Max Wind Speed 16 mph    
Max Gust Speed -    
Visibility 10 miles    
Events      
Averages and records for this station are not official NWS values.
T = Trace of Precipitation, MM = Missing Value Source: NWS Daily Summary

Daily Weather History Graph

Daily Weather History Graph

Search for Another Location

Airport or City:

Trip Planner

Search our weather history database for the weather conditions in past years. The results will help you decide how hot, cold, wet, or windy it might be!

Date:

Astronomy

May. 09, 2013 Rise Set
Actual Time 3:23 AM AKDT 12:24 AM AKDT
Civil Twilight Sun does not set Sun does not set
Nautical Twilight Sun does not set Sun does not set
Astronomical Twilight Sun does not set Sun does not set
Moon 3:55 AM AKDT (5/9) No Moon Set
Length of Visible Light 24h 00m
Length of Day
21h 01m
Waning Crescent, 0% of the Moon is Illuminated
May 9
Waning Crescent
May 9
New
May 17
First Quarter
May 24
Full
May 31
Last Quarter

Hourly Weather History & Observations

Time (AKDT) Temp. Windchill Dew Point Humidity Pressure Visibility Wind Dir Wind Speed Gust Speed Precip Events Conditions
12:41 AM 19.4 °F - 15.8 °F 86% 30.35 in 10.0 mi Calm Calm - N/A   Overcast
12:53 AM 19.9 °F 14.9 °F 16.0 °F 85% 30.35 in 10.0 mi ESE 3.5 mph - N/A   Overcast
1:30 AM 19.4 °F 12.8 °F 15.8 °F 86% 30.35 in 7.0 mi ESE 4.6 mph - N/A   Overcast
1:47 AM 19.4 °F 10.4 °F 15.8 °F 86% 30.34 in 10.0 mi ESE 6.9 mph - N/A   Overcast
1:53 AM 19.9 °F 12.1 °F 16.0 °F 85% 30.35 in 10.0 mi ESE 5.8 mph - N/A   Overcast
2:53 AM 19.9 °F 9.3 °F 15.1 °F 81% 30.35 in 10.0 mi ESE 9.2 mph - N/A   Overcast
3:53 AM 19.9 °F 9.3 °F 17.1 °F 89% 30.34 in 10.0 mi ESE 9.2 mph - N/A   Overcast
4:53 AM 21.0 °F 13.4 °F 18.0 °F 88% 30.33 in 10.0 mi ESE 5.8 mph - N/A   Overcast
5:53 AM 24.1 °F 18.2 °F 21.0 °F 88% 30.32 in 10.0 mi South 4.6 mph - N/A   Overcast
6:53 AM 26.1 °F 16.2 °F 23.0 °F 88% 30.32 in 10.0 mi SW 10.4 mph - N/A   Overcast
7:53 AM 27.0 °F 16.7 °F 23.0 °F 85% 30.31 in 10.0 mi SW 11.5 mph - N/A   Overcast
8:53 AM 27.0 °F 15.2 °F 23.0 °F 85% 30.31 in 10.0 mi SSW 15.0 mph - N/A   Overcast
9:53 AM 28.0 °F 16.5 °F 21.0 °F 75% 30.30 in 10.0 mi SSW 15.0 mph - N/A   Overcast
10:53 AM 28.0 °F 16.1 °F 21.9 °F 78% 30.29 in 10.0 mi SSW 16.1 mph - N/A   Overcast
11:53 AM 28.9 °F 17.3 °F 21.9 °F 75% 30.29 in 10.0 mi SSW 16.1 mph - N/A   Overcast
12:53 PM 30.0 °F 19.1 °F 25.0 °F 82% 30.29 in 10.0 mi SW 15.0 mph - N/A   Overcast
1:53 PM 30.0 °F 19.5 °F 24.1 °F 79% 30.28 in 10.0 mi SSW 13.8 mph - N/A   Clear
2:53 PM 30.9 °F 20.7 °F 25.0 °F 79% 30.28 in 10.0 mi SW 13.8 mph - N/A   Clear
3:53 PM 30.9 °F 21.7 °F 25.0 °F 79% 30.27 in 10.0 mi SSW 11.5 mph - N/A   Partly Cloudy
4:53 PM 30.9 °F 21.2 °F 26.1 °F 82% 30.25 in 10.0 mi SW 12.7 mph - N/A   Partly Cloudy
5:53 PM 30.0 °F 23.2 °F 26.1 °F 85% 30.25 in 10.0 mi SW 6.9 mph - N/A   Clear
6:53 PM 30.0 °F 22.4 °F 24.1 °F 79% 30.24 in 10.0 mi WSW 8.1 mph - N/A   Clear
7:53 PM 27.0 °F 18.7 °F 23.0 °F 85% 30.23 in 10.0 mi West 8.1 mph - N/A   Clear
8:53 PM 23.0 °F 12.4 °F 19.9 °F 88% 30.22 in 10.0 mi SW 10.4 mph - N/A   Clear
9:53 PM 19.9 °F 8.6 °F 16.0 °F 85% 30.21 in 10.0 mi SW 10.4 mph - N/A   Clear
10:53 PM 19.9 °F 10.1 °F 15.1 °F 81% 30.21 in 10.0 mi SW 8.1 mph - N/A   Clear
11:53 PM 18.0 °F 4.8 °F 14.0 °F 84% 30.21 in 10.0 mi SW 12.7 mph - N/A   Clear